Orbital Elements at Epoch 2459200.5 (2020-Dec-17.0) TDB
Reference: JPL 14 (heliocentric ecliptic J2000)
Element | Value | Uncertainty (1-sigma) | Units |
e | .150869520047738 | 5.6209e-08 | |
a | 2.385123488071066 | 1.1899e-08 | au |
q | 2.025281052171198 | 1.3208e-07 | au |
i | 6.949166974375712 | 6.0845e-06 | deg |
node | 39.94476045459444 | 3.0207e-05 | deg |
peri | 338.0303360046722 | 3.4464e-05 | deg |
M | 35.02019757071828 | 1.4722e-05 | deg |
tp | 2459069.617729057196 (2020-Aug-08.11772906) | 5.5182e-05 | TDB |
period | 1345.441225574535 3.68 | 1.0068e-05 2.756e-08 | d yr |
n | .2675702164888485 | 2.0023e-09 | deg/d |
Q | 2.744965923970934 | 1.3694e-08 | au |
|
| | Orbit Determination Parameters
Additional Information
|